Radiation Dose at Monitoring Post of Fukushima Daini Nuclear Power Station
Date,Time,MP-1(microSv/h),MP-2(microSv/h),MP-3(microSv/h),MP-4(microSv/h),MP-5(microSv/h),MP-6(microSv/h),MP-7(microSv/h),Wind Direction,Wind Velocity(m/s),Rain
2019/04/20,00:00,0.205,0.189,0.311,0.288,0.277,0.154,0.094,north,10.3,No
2019/04/20,00:10,0.205,0.190,0.309,0.289,0.277,0.155,0.093,north,9.3,No
2019/04/20,00:20,0.205,0.189,0.309,0.290,0.275,0.155,0.093,north,8.1,No
2019/04/20,00:30,0.205,0.189,0.309,0.288,0.275,0.154,0.094,north,6.8,No
2019/04/20,00:40,0.204,0.191,0.310,0.289,0.276,0.154,0.093,north,8.1,No
2019/04/20,00:50,0.204,0.189,0.308,0.290,0.274,0.154,0.093,north,9.5,No
2019/04/20,01:00,0.204,0.188,0.310,0.289,0.277,0.154,0.094,north,7.6,No
2019/04/20,01:10,0.204,0.189,0.311,0.288,0.275,0.153,0.093,north,7.7,No
2019/04/20,01:20,0.205,0.190,0.310,0.288,0.275,0.154,0.093,north,7.3,No
2019/04/20,01:30,0.204,0.190,0.309,0.291,0.275,0.152,0.094,north,7.4,No
2019/04/20,01:40,0.204,0.190,0.308,0.289,0.277,0.154,0.094,north,7.3,No
2019/04/20,01:50,0.204,0.190,0.311,0.288,0.275,0.155,0.094,north,8.2,No
2019/04/20,02:00,0.204,0.188,0.308,0.289,0.275,0.154,0.093,north,8.1,No
2019/04/20,02:10,0.205,0.190,0.309,0.288,0.275,0.154,0.094,north-northwest,6.6,No
2019/04/20,02:20,0.204,0.190,0.310,0.288,0.276,0.154,0.094,north-northwest,7.0,No
2019/04/20,02:30,0.207,0.191,0.310,0.287,0.274,0.155,0.094,north,6.7,No
2019/04/20,02:40,0.206,0.190,0.308,0.289,0.275,0.154,0.095,north,6.4,No
2019/04/20,02:50,0.205,0.189,0.310,0.288,0.275,0.153,0.094,north,7.1,No
2019/04/20,03:00,0.204,0.189,0.311,0.288,0.276,0.154,0.094,north,6.7,No
2019/04/20,03:10,0.204,0.191,0.308,0.289,0.275,0.155,0.093,north,5.9,No
2019/04/20,03:20,0.204,0.190,0.309,0.290,0.275,0.154,0.093,north-northwest,3.9,No
2019/04/20,03:30,0.203,0.189,0.310,0.288,0.276,0.154,0.093,north-northwest,3.2,No
2019/04/20,03:40,0.203,0.190,0.311,0.289,0.275,0.153,0.094,north,4.3,No
2019/04/20,03:50,0.205,0.189,0.310,0.290,0.275,0.154,0.094,north,5.1,No
2019/04/20,04:00,0.204,0.189,0.310,0.290,0.275,0.154,0.093,north-northwest,5.1,No
2019/04/20,04:10,0.203,0.189,0.310,0.288,0.276,0.154,0.094,north,5.5,No
2019/04/20,04:20,0.205,0.189,0.311,0.290,0.274,0.154,0.094,north-northwest,5.5,No
2019/04/20,04:30,0.205,0.189,0.309,0.289,0.274,0.154,0.094,north-northwest,5.5,No
2019/04/20,04:40,0.205,0.189,0.310,0.290,0.276,0.154,0.093,north-northwest,6.2,No
2019/04/20,04:50,0.203,0.190,0.310,0.289,0.277,0.154,0.093,north-northwest,6.5,No
2019/04/20,05:00,0.204,0.189,0.310,0.288,0.275,0.153,0.094,north-northwest,7.0,No
2019/04/20,05:10,0.205,0.190,0.310,0.290,0.275,0.154,0.095,north-northwest,7.1,No
2019/04/20,05:20,0.204,0.189,0.309,0.291,0.275,0.154,0.094,north-northwest,6.4,No
2019/04/20,05:30,0.204,0.190,0.310,0.289,0.275,0.154,0.094,north-northwest,6.5,No
2019/04/20,05:40,0.205,0.189,0.311,0.289,0.274,0.154,0.094,north-northwest,7.0,No
2019/04/20,05:50,0.205,0.190,0.310,0.289,0.274,0.154,0.094,north-northwest,7.3,No
2019/04/20,06:00,0.205,0.190,0.309,0.289,0.275,0.154,0.094,north-northwest,7.3,No
2019/04/20,06:10,0.204,0.189,0.310,0.288,0.274,0.154,0.093,north-northwest,6.6,No
2019/04/20,06:20,0.205,0.189,0.310,0.289,0.275,0.154,0.094,north-northwest,5.9,No
2019/04/20,06:30,0.205,0.190,0.310,0.289,0.274,0.153,0.093,north-northwest,4.8,No
2019/04/20,06:40,0.204,0.189,0.309,0.290,0.276,0.154,0.093,northwest,3.5,No
2019/04/20,06:50,0.205,0.190,0.309,0.289,0.276,0.154,0.094,northwest,2.9,No
2019/04/20,07:00,0.204,0.190,0.309,0.288,0.275,0.153,0.093,north-northwest,1.6,No
2019/04/20,07:10,0.204,0.189,0.308,0.289,0.275,0.154,0.093,north-northwest,2.7,No
2019/04/20,07:20,0.203,0.188,0.308,0.287,0.275,0.153,0.093,north-northwest,2.5,No
2019/04/20,07:30,0.204,0.190,0.309,0.287,0.274,0.153,0.092,northwest,4.0,No
2019/04/20,07:40,0.204,0.189,0.308,0.287,0.276,0.154,0.094,northwest,3.7,No
2019/04/20,07:50,0.204,0.188,0.308,0.286,0.274,0.154,0.092,northwest,5.1,No
2019/04/20,08:00,0.203,0.188,0.310,0.287,0.274,0.154,0.094,northwest,5.7,No
2019/04/20,08:10,0.204,0.188,0.309,0.288,0.276,0.154,0.094,northwest,4.6,No
2019/04/20,08:20,0.203,0.188,0.310,0.285,0.275,0.154,0.093,northwest,5.3,No
2019/04/20,08:30,0.204,0.188,0.309,0.288,0.275,0.153,0.093,northwest,3.8,No
2019/04/20,08:40,0.202,0.188,0.310,0.286,0.275,0.153,0.093,northeast,3.7,No
2019/04/20,08:50,0.204,0.188,0.311,0.288,0.276,0.153,0.094,east-northeast,5.6,No
2019/04/20,09:00,0.203,0.188,0.310,0.287,0.275,0.153,0.093,northeast,6.2,No
2019/04/20,09:10,0.203,0.188,0.310,0.287,0.275,0.154,0.093,east-northeast,6.2,No
2019/04/20,09:20,0.206,0.189,0.311,0.289,0.276,0.154,0.093,east-northeast,5.4,No
2019/04/20,09:30,0.203,0.188,0.310,0.286,0.275,0.152,0.094,northeast,3.8,No
2019/04/20,09:40,0.204,0.188,0.311,0.290,0.277,0.153,0.093,northeast,3.1,No
2019/04/20,09:50,0.204,0.190,0.310,0.289,0.275,0.153,0.093,east-northeast,3.0,No
2019/04/20,10:00,0.204,0.188,0.308,0.288,0.277,0.154,0.094,north-northeast,2.7,No
2019/04/20,10:10,0.203,0.190,0.310,0.290,0.276,0.153,0.094,north-northeast,2.7,No
2019/04/20,10:20,0.205,0.189,0.308,0.287,0.273,0.153,0.093,east-northeast,2.1,No
2019/04/20,10:30,0.203,0.190,0.309,0.287,0.276,0.153,0.093,east-northeast,2.8,No
2019/04/20,10:40,0.204,0.189,0.309,0.289,0.275,0.154,0.094,east-southeast,3.7,No
2019/04/20,10:50,0.204,0.189,0.307,0.286,0.277,0.152,0.094,east,2.9,No
2019/04/20,11:00,0.203,0.189,0.308,0.290,0.274,0.154,0.093,northeast,2.6,No
2019/04/20,11:10,0.204,0.189,0.308,0.289,0.276,0.153,0.094,east,2.2,No
2019/04/20,11:20,0.203,0.188,0.307,0.287,0.274,0.155,0.094,east-southeast,3.1,No
2019/04/20,11:30,0.204,0.191,0.309,0.289,0.275,0.154,0.094,southeast,2.5,No
2019/04/20,11:40,0.203,0.189,0.307,0.287,0.276,0.155,0.093,south-southeast,2.9,No
2019/04/20,11:50,0.205,0.189,0.309,0.292,0.275,0.154,0.093,south-southeast,3.4,No
2019/04/20,12:00,0.203,0.189,0.308,0.288,0.276,0.153,0.093,south-southeast,3.1,No
2019/04/20,12:10,0.204,0.190,0.308,0.291,0.274,0.153,0.094,south-southeast,2.7,No
2019/04/20,12:20,0.205,0.188,0.309,0.288,0.276,0.154,0.094,south-southeast,4.2,No
2019/04/20,12:30,0.203,0.188,0.308,0.290,0.274,0.153,0.093,south-southeast,1.8,No
2019/04/20,12:40,0.204,0.190,0.311,0.290,0.276,0.153,0.093,-,CALM,No
2019/04/20,12:50,0.203,0.189,0.307,0.288,0.274,0.153,0.094,south,1.6,No
2019/04/20,13:00,0.204,0.189,0.311,0.289,0.275,0.154,0.093,southeast,1.6,No
2019/04/20,13:10,0.204,0.189,0.310,0.287,0.276,0.153,0.093,south,3.2,No
2019/04/20,13:20,0.203,0.189,0.308,0.290,0.274,0.153,0.094,-,CALM,No
2019/04/20,13:30,0.204,0.190,0.309,0.287,0.278,0.154,0.093,-,CALM,No
2019/04/20,13:40,0.204,0.189,0.308,0.289,0.274,0.153,0.094,south-southeast,2.1,No
2019/04/20,13:50,0.202,0.190,0.307,0.289,0.274,0.154,0.093,-,CALM,No
2019/04/20,14:00,0.203,0.189,0.311,0.288,0.277,0.154,0.094,south,2.7,No
2019/04/20,14:10,0.204,0.189,0.309,0.291,0.275,0.155,0.094,south-southeast,4.6,No
2019/04/20,14:20,0.202,0.189,0.308,0.289,0.277,0.154,0.092,south-southeast,6.3,No
2019/04/20,14:30,0.204,0.191,0.311,0.290,0.277,0.153,0.094,south-southeast,6.8,No
2019/04/20,14:40,0.205,0.189,0.307,0.290,0.274,0.155,0.093,south-southeast,5.5,No
2019/04/20,14:50,0.203,0.190,0.311,0.288,0.276,0.153,0.093,southeast,5.9,No
2019/04/20,15:00,0.204,0.189,0.309,0.290,0.275,0.154,0.094,south-southeast,7.0,No
2019/04/20,15:10,0.204,0.190,0.308,0.290,0.276,0.154,0.094,south-southeast,6.2,No
2019/04/20,15:20,0.203,0.190,0.310,0.290,0.277,0.155,0.093,south-southeast,6.4,No
2019/04/20,15:30,0.205,0.190,0.312,0.291,0.275,0.154,0.093,south-southeast,7.7,No
2019/04/20,15:40,0.203,0.189,0.308,0.291,0.275,0.154,0.094,south-southeast,8.1,No
2019/04/20,15:50,0.206,0.190,0.312,0.291,0.275,0.155,0.094,south-southeast,7.3,No
2019/04/20,16:00,0.203,0.191,0.311,0.290,0.277,0.154,0.094,southeast,7.4,No
2019/04/20,16:10,0.205,0.190,0.311,0.289,0.274,0.154,0.094,south-southeast,7.3,No
2019/04/20,16:20,0.205,0.190,0.311,0.291,0.278,0.154,0.094,south,8.9,No
2019/04/20,16:30,0.204,0.191,0.312,0.290,0.275,0.153,0.094,south-southeast,8.8,No
2019/04/20,16:40,0.204,0.189,0.312,0.290,0.277,0.154,0.093,south-southeast,7.9,No
2019/04/20,16:50,0.206,0.190,0.311,0.291,0.274,0.154,0.093,south-southeast,7.6,No
2019/04/20,17:00,0.204,0.190,0.311,0.290,0.278,0.154,0.094,south-southeast,8.1,No
2019/04/20,17:10,0.206,0.191,0.311,0.290,0.276,0.154,0.094,south-southeast,8.6,No
2019/04/20,17:20,0.204,0.190,0.310,0.290,0.278,0.154,0.094,south-southeast,9.3,No
2019/04/20,17:30,0.204,0.190,0.312,0.290,0.277,0.155,0.093,south-southeast,9.3,No
2019/04/20,17:40,0.205,0.191,0.311,0.291,0.277,0.155,0.093,south-southeast,9.5,No
2019/04/20,17:50,0.205,0.190,0.310,0.291,0.278,0.155,0.094,south-southeast,8.7,No
2019/04/20,18:00,0.205,0.188,0.312,0.290,0.277,0.155,0.094,south-southeast,7.3,No
2019/04/20,18:10,0.206,0.190,0.310,0.291,0.278,0.154,0.094,south-southeast,7.7,No
2019/04/20,18:20,0.204,0.191,0.311,0.289,0.278,0.155,0.094,south,8.7,No
2019/04/20,18:30,0.207,0.190,0.311,0.289,0.275,0.155,0.094,south,10.0,No
2019/04/20,18:40,0.205,0.191,0.309,0.291,0.277,0.155,0.095,south,9.3,No
2019/04/20,18:50,0.204,0.191,0.311,0.290,0.276,0.155,0.093,south,8.2,No
2019/04/20,19:00,0.205,0.190,0.311,0.290,0.276,0.155,0.093,south,8.2,No
2019/04/20,19:10,0.205,0.190,0.310,0.291,0.276,0.156,0.094,south,8.1,No
2019/04/20,19:20,0.204,0.190,0.311,0.292,0.276,0.155,0.093,south,7.6,No
2019/04/20,19:30,0.204,0.190,0.312,0.291,0.276,0.155,0.094,south,7.6,No
2019/04/20,19:40,0.204,0.191,0.311,0.291,0.276,0.154,0.094,south,7.6,No
2019/04/20,19:50,0.204,0.191,0.310,0.291,0.276,0.155,0.094,south,7.6,No
2019/04/20,20:00,0.206,0.190,0.311,0.290,0.275,0.155,0.093,south,7.0,No
2019/04/20,20:10,0.204,0.191,0.312,0.290,0.275,0.154,0.093,south,7.0,No
2019/04/20,20:20,0.205,0.190,0.310,0.291,0.276,0.155,0.094,south,6.6,No
2019/04/20,20:30,0.205,0.190,0.310,0.291,0.275,0.154,0.094,south,7.3,No
2019/04/20,20:40,0.205,0.189,0.311,0.290,0.277,0.155,0.094,south,6.7,No
2019/04/20,20:50,0.204,0.191,0.311,0.290,0.276,0.154,0.094,south,6.4,No
2019/04/20,21:00,0.204,0.191,0.312,0.290,0.275,0.155,0.094,south,6.0,No
2019/04/20,21:10,0.205,0.189,0.311,0.291,0.275,0.155,0.094,south,6.7,No
2019/04/20,21:20,0.205,0.191,0.312,0.290,0.277,0.155,0.094,south,6.6,No
2019/04/20,21:30,0.206,0.191,0.310,0.292,0.275,0.153,0.095,south,6.2,No
2019/04/20,21:40,0.206,0.190,0.310,0.291,0.277,0.155,0.094,south-southwest,5.5,No
2019/04/20,21:50,0.205,0.191,0.312,0.290,0.277,0.155,0.094,south-southwest,6.0,No
2019/04/20,22:00,0.205,0.191,0.311,0.292,0.277,0.154,0.095,south-southwest,5.7,No
2019/04/20,22:10,0.206,0.191,0.310,0.291,0.277,0.155,0.094,south-southwest,5.7,No
2019/04/20,22:20,0.204,0.190,0.311,0.292,0.276,0.154,0.094,south-southwest,4.8,No
2019/04/20,22:30,0.205,0.191,0.311,0.292,0.275,0.155,0.094,south-southwest,4.2,No
2019/04/20,22:40,0.205,0.191,0.312,0.290,0.277,0.154,0.094,south-southwest,4.5,No
2019/04/20,22:50,0.205,0.190,0.312,0.291,0.276,0.154,0.095,south-southwest,3.1,No
2019/04/20,23:00,0.205,0.190,0.310,0.291,0.275,0.155,0.094,south-southwest,2.4,No
2019/04/20,23:10,0.206,0.191,0.311,0.291,0.277,0.155,0.094,south-southwest,3.3,No
2019/04/20,23:20,0.206,0.190,0.313,0.291,0.277,0.154,0.094,south-southwest,3.1,No
2019/04/20,23:30,0.206,0.190,0.312,0.291,0.276,0.155,0.094,southwest,3.9,No
2019/04/20,23:40,0.205,0.190,0.313,0.291,0.277,0.155,0.095,west-southwest,2.6,No
2019/04/20,23:50,0.204,0.190,0.313,0.291,0.276,0.155,0.094,west-southwest,1.9,No
